Location: Betz
(49.1556°N, 2.9558°E)
Time: 06:43:34
(UTC+00:00)

Cosmos 1624 Rocket - Pass Details

Date: 18 September 2019
Orbit: 757 x 784 km, 74.0° (Epoch: 15 October)

Event Time Altitude Azimuth Distance (km) Brightness Sun altitude
Rises 20:00:35 0° 201° (SSW) 3,207 7.1 -20.4°
Reaches altitude 10° 20:02:57 10° 201° (SSW) 2,284 6.4 -20.7°
Maximum altitude 20:08:08 88° 114° (ESE) 765 3.9 -21.4°
Drops below altitude 10° 20:13:21 10° 24° (NNE) 2,298 6.5 -22.2°
Sets 20:15:44 0° 24° (NNE) 3,229 7.3 -22.5°
